User: anonymous   Login
Location: Caltech
(34.1382°N, 118.1253°W)
Time: 17:23:46
(UTC-08:00)
Language:

OAO 2 Rocket - Orbit

View from above orbital plane
View from above orbital plane
View from above satellite
View from above satellite

Ground track
Ground track

The orbit data is extracted from the following two-line orbital elements,

1  3598U 68110B   16038.91790391 +.00000244 +00000-0 +60551-4 0  9999
2  3598 034.9928 253.6779 0049396 171.6952 188.4568 14.54176910473432
Epoch (UTC): 07 February 2016 22:01:46
Eccentricity: 0.0049396
inclination: 34.9928°
perigee height: 677 km
apogee height: 747 km
right ascension of ascending node: 253.6779°
argument of perigee: 171.6952°
revolutions per day: 14.54176910
mean anomaly at epoch: 188.4568°
orbit number at epoch: 47343

The dashed part of the orbit path shows where the satellite is in the earth's shadow,  

DLR